Accueil
METAR-TAF:

METAR-TAF

Aéroports :

Monte Cimone, Italie

latitude: 44-12N, longitude: 010-42E, altitude: 2165 m

Observation

Le bulletin a été fait il y a 39 minutes, à 22:10 UTC
Vent 16 kt de sud/sud-ouest avec des rafales jusqu'à 36 kt
Température 4°C
Humidité 93%
Pression 1007 hPa

METAR: LIVC 262210Z AUTO 21016G36KT ///// 04/03 Q1007

Heure: 00:49 (22:49 UTC)


TAF: absent

Observations et prévisions météorologiques de plus de 4000 aéroports (messages METAR et TAF).

Les stations disponibles sont représentées par des disques jaunes et rouges sur la carte.

Passer la souris dessus pour voir le nom de la station.

Cliquer dessus pour voir les observations et prévisions météorologiques.

Pour changer de carte: cliquez sur les boutons verts avec une croix noire pour zoomer, sur le bouton vert avec un tiret pour effectuer un zoom arrière, ou sur les flèches vertes pour les cartes adjacentes.


METAR-TAF: